Simultaneous Nadir Overpasses (SNOs) Predictions

Prediction of SNOs between NOAA-19 and TERRA Satellite Orbit:

Table of predicted SNOs for the next 14.0 days since TLE Epoch: 3/23/2024
Index Date (NOAA-19) Time (NOAA-19) Lat,Lon (NOAA-19) SZA (NOAA-19 ) Date (TERRA) Time (TERRA) Lat,Lon (TERRA) SZA (TERRA ) Distance(km) Time Diff (sec)
1 03/25/2024 02:09:23 -79.94, -12.00 101.52 03/25/2024 02:10:02 -79.95, -11.95 101.51 1.03 39
2 03/25/2024 03:00:23 80.05, 156.48 78.64 03/25/2024 02:59:20 80.06, 156.60 78.64 2.57 63
3 03/27/2024 05:59:33 79.97, 110.83 77.69 03/27/2024 05:59:31 79.98, 110.94 77.71 2.48 2
4 03/29/2024 08:58:43 79.89, 65.11 76.74 03/29/2024 08:59:42 79.88, 65.10 76.75 0.34 59
5 03/29/2024 09:49:34 -79.98,-126.48 103.12 03/29/2024 09:49:01 -79.98,-126.47 103.13 0.19 33
6 03/31/2024 12:48:44 -79.90,-172.18 104.07 03/31/2024 12:49:11 -79.89,-172.22 104.07 0.94 27
7 03/31/2024 13:39:31 80.29, 0.16 76.62 03/31/2024 13:38:18 80.39, -0.42 76.65 15.52 73
8 04/02/2024 16:38:52 79.94, -49.25 75.18 04/02/2024 16:38:38 79.93, -49.32 75.17 1.56 14
9 04/04/2024 19:38:02 79.83, -95.20 74.21 04/04/2024 19:38:47 79.83, -95.15 74.23 1.07 45



Historial Predications of SNOs between NOAA-19 and TERRA
